Total_Precipitation_Accumulation
0.07 0.09 0.07 0.12 0.06 0.04 0.04 0.05 0.04 0.03 0.03 0.04 0.03 0.03 0.04 0.04 0.02 0.03 0.03 0.03 0.02 0.03 0.04 0.01 0.02 0.02 0.01 0.01 0.00 0.00 0.00 0.00 0.00 0.00 0.00 0.00 0.00 0.00 0.00 0.00 0.00 0.00 0.00 0.00 0.00 0.00 0.00 0.00 0.00 0.00 0.00 0.00 0.00 0.00 0.00 0.00 0.00 0.00 0.00 0.00 0.00 0.00 0.00 0.00 0.00 0.00 0.00 0.00 0.00 0.00 0.00 0.00 0.00 0.00 0.00 0.00 0.00 0.00 0.01 0.00 0.01 0.01 0.12 0.10 0.12 0.18 0.10 0.12
0.06 0.06 0.11 0.05 0.05 0.06 0.05 0.04 0.04 0.03 0.02 0.02 0.03 0.03 0.03 0.03 0.03 0.01 0.03 0.02 0.03 0.02 0.01 0.03 0.01 0.01 0.01 0.00 0.00 0.00 0.00 0.00 0.00 0.00 0.00 0.00 0.00 0.00 0.00 0.00 0.00 0.00 0.00 0.00 0.00 0.00 0.00 0.00 0.00 0.00 0.00 0.00 0.00 0.00 0.00 0.00 0.00 0.00 0.00 0.00 0.00 0.00 0.00 0.00 0.00 0.00 0.00 0.00 0.00 0.00 0.00 0.00 0.00 0.00 0.00 0.02 0.00 0.00 0.01 0.03 0.04 0.07 0.12 0.15 0.12 0.09 0.15 0.12
0.06 0.05 0.07 0.06 0.06 0.07 0.07 0.05 0.04 0.04 0.04 0.03 0.02 0.03 0.03 0.03 0.03 0.02 0.02 0.02 0.02 0.01 0.01 0.01 0.02 0.01 0.00 0.00 0.00 0.00 0.00 0.00 0.00 0.00 0.00 0.00 0.00 0.00 0.00 0.00 0.00 0.00 0.00 0.00 0.00 0.00 0.00 0.00 0.00 0.00 0.00 0.00 0.00 0.00 0.00 0.00 0.00 0.00 0.00 0.00 0.00 0.00 0.00 0.00 0.00 0.00 0.00 0.00 0.00 0.00 0.00 0.00 0.00 0.00 0.00 0.03 0.01 0.00 0.01 0.03 0.06 0.15 0.25 0.17 0.17 0.15 0.19 0.21
0.07 0.06 0.05 0.06 0.05 0.06 0.06 0.07 0.05 0.05 0.06 0.05 0.03 0.04 0.03 0.03 0.03 0.03 0.03 0.02 0.01 0.01 0.01 0.01 0.01 0.01 0.01 0.00 0.00 0.00 0.00 0.00 0.00 0.00 0.00 0.00 0.00 0.00 0.00 0.00 0.00 0.00 0.00 0.00 0.00 0.00 0.00 0.00 0.00 0.00 0.00 0.00 0.00 0.00 0.00 0.00 0.00 0.00 0.00 0.00 0.00 0.00 0.00 0.00 0.00 0.00 0.00 0.00 0.00 0.00 0.00 0.00 0.00 0.00 0.00 0.00 0.03 0.03 0.01 0.02 0.10 0.13 0.23 0.17 0.21 0.17 0.19 0.38
0.06 0.07 0.06 0.05 0.06 0.05 0.06 0.06 0.06 0.06 0.07 0.05 0.04 0.04 0.04 0.02 0.03 0.03 0.03 0.02 0.02 0.01 0.01 0.01 0.01 0.01 0.00 0.00 0.00 0.00 0.00 0.00 0.00 0.00 0.00 0.00 0.00 0.00 0.00 0.00 0.00 0.00 0.00 0.00 0.00 0.00 0.00 0.00 0.00 0.00 0.00 0.00 0.00 0.00 0.00 0.00 0.00 0.00 0.00 0.00 0.00 0.00 0.00 0.00 0.00 0.00 0.00 0.00 0.00 0.00 0.00 0.00 0.00 0.00 0.00 0.00 0.02 0.13 0.07 0.07 0.01 0.02 0.34 0.38 0.15 0.17 0.32 0.40
0.05 0.05 0.04 0.04 0.05 0.06 0.06 0.06 0.05 0.05 0.04 0.03 0.05 0.04 0.04 0.04 0.03 0.03 0.03 0.03 0.04 0.03 0.01 0.02 0.01 0.00 0.00 0.00 0.00 0.00 0.00 0.00 0.00 0.00 0.00 0.00 0.00 0.00 0.00 0.00 0.00 0.00 0.00 0.00 0.00 0.00 0.00 0.00 0.00 0.00 0.00 0.00 0.00 0.00 0.00 0.00 0.00 0.00 0.00 0.00 0.00 0.00 0.00 0.00 0.00 0.00 0.00 0.00 0.00 0.00 0.00 0.00 0.00 0.00 0.00 0.00 0.01 0.09 0.06 0.06 0.07 0.02 0.10 0.31 0.20 0.36 0.46 0.80
0.04 0.05 0.04 0.05 0.07 0.06 0.06 0.09 0.05 0.05 0.07 0.04 0.02 0.04 0.04 0.06 0.05 0.04 0.03 0.04 0.02 0.03 0.01 0.02 0.01 0.00 0.00 0.00 0.00 0.00 0.00 0.00 0.00 0.00 0.00 0.00 0.00 0.00 0.00 0.00 0.00 0.00 0.00 0.00 0.00 0.00 0.00 0.00 0.00 0.00 0.00 0.00 0.00 0.00 0.00 0.00 0.00 0.00 0.00 0.00 0.00 0.00 0.00 0.00 0.00 0.00 0.00 0.00 0.00 0.00 0.00 0.00 0.00 0.00 0.00 0.00 0.00 0.00 0.03 0.07 0.02 0.09 0.10 0.17 0.16 0.32 0.41 0.53
0.05 0.05 0.09 0.06 0.05 0.04 0.04 0.05 0.05 0.04 0.04 0.04 0.05 0.04 0.04 0.03 0.06 0.04 0.03 0.03 0.03 0.02 0.03 0.01 0.00 0.00 0.00 0.00 0.00 0.00 0.00 0.00 0.00 0.00 0.00 0.00 0.00 0.00 0.00 0.00 0.00 0.00 0.00 0.00 0.00 0.00 0.00 0.00 0.00 0.00 0.00 0.00 0.00 0.00 0.00 0.00 0.00 0.00 0.00 0.00 0.00 0.00 0.00 0.00 0.00 0.00 0.00 0.00 0.00 0.00 0.00 0.00 0.00 0.00 0.00 0.02 0.01 0.01 0.03 0.03 0.02 0.04 0.09 0.17 0.15 0.31 0.45 0.75
0.04 0.05 0.06 0.08 0.05 0.03 0.04 0.04 0.04 0.03 0.05 0.03 0.03 0.03 0.06 0.05 0.06 0.06 0.04 0.04 0.03 0.03 0.02 0.02 0.00 0.00 0.00 0.00 0.00 0.00 0.00 0.00 0.00 0.00 0.00 0.00 0.00 0.00 0.00 0.00 0.00 0.00 0.00 0.00 0.00 0.00 0.00 0.00 0.00 0.00 0.00 0.00 0.00 0.00 0.00 0.00 0.00 0.00 0.00 0.00 0.00 0.00 0.00 0.00 0.00 0.00 0.00 0.00 0.00 0.00 0.00 0.00 0.00 0.00 0.02 0.18 0.07 0.03 0.06 0.07 0.07 0.08 0.09 0.24 0.21 0.23 0.39 0.60
0.05 0.06 0.05 0.07 0.05 0.03 0.02 0.03 0.03 0.04 0.04 0.03 0.03 0.03 0.04 0.06 0.05 0.06 0.04 0.03 0.03 0.04 0.02 0.02 0.00 0.00 0.00 0.00 0.00 0.00 0.00 0.00 0.00 0.00 0.00 0.00 0.00 0.00 0.00 0.00 0.00 0.00 0.00 0.00 0.00 0.00 0.00 0.00 0.00 0.00 0.00 0.00 0.00 0.00 0.00 0.00 0.00 0.00 0.00 0.00 0.00 0.00 0.00 0.00 0.00 0.00 0.00 0.00 0.00 0.00 0.00 0.00 0.00 0.00 0.12 0.54 0.49 0.09 0.09 0.22 0.31 0.06 0.15 0.16 0.23 0.42 0.76 0.55
0.07 0.04 0.06 0.08 0.06 0.04 0.05 0.04 0.03 0.08 0.05 0.06 0.05 0.06 0.05 0.05 0.07 0.05 0.06 0.03 0.03 0.02 0.02 0.01 0.01 0.00 0.01 0.00 0.00 0.00 0.00 0.00 0.00 0.00 0.00 0.00 0.00 0.00 0.00 0.00 0.00 0.00 0.00 0.00 0.00 0.00 0.00 0.00 0.00 0.00 0.00 0.00 0.00 0.00 0.00 0.00 0.00 0.00 0.00 0.00 0.00 0.00 0.00 0.00 0.00 0.00 0.00 0.00 0.00 0.00 0.00 0.00 0.00 0.00 0.05 0.14 0.53 0.70 0.50 0.56 1.09 0.25 0.26 0.54 0.79 1.07 0.78 0.85
0.05 0.09 0.08 0.04 0.08 0.14 0.05 0.07 0.08 0.07 0.09 0.08 0.05 0.06 0.07 0.05 0.05 0.02 0.03 0.06 0.04 0.03 0.01 0.01 0.01 0.04 0.01 0.01 0.01 0.00 0.00 0.00 0.00 0.00 0.00 0.00 0.00 0.00 0.00 0.00 0.00 0.00 0.00 0.00 0.00 0.00 0.00 0.00 0.00 0.00 0.00 0.00 0.00 0.00 0.00 0.00 0.00 0.00 0.00 0.00 0.00 0.00 0.00 0.00 0.00 0.00 0.00 0.00 0.00 0.00 0.00 0.00 0.01 0.14 0.06 0.10 0.25 0.82 0.84 0.63 0.37 0.61 0.57 0.75 0.92 0.72 0.54 0.63
0.06 0.06 0.05 0.08 0.09 0.12 0.06 0.09 0.06 0.08 0.05 0.06 0.06 0.06 0.06 0.05 0.08 0.08 0.03 0.05 0.02 0.03 0.02 0.02 0.01 0.02 0.01 0.02 0.00 0.00 0.00 0.00 0.00 0.00 0.00 0.00 0.00 0.00 0.00 0.00 0.00 0.00 0.00 0.00 0.00 0.00 0.00 0.00 0.00 0.00 0.00 0.00 0.00 0.00 0.00 0.00 0.00 0.00 0.00 0.00 0.00 0.00 0.00 0.00 0.00 0.00 0.00 0.00 0.00 0.00 0.02 0.02 0.04 0.06 0.23 0.29 0.33 0.77 0.89 0.54 0.43 0.80 1.29 2.28 1.94 1.24 1.17 1.39
0.07 0.05 0.06 0.05 0.05 0.06 0.09 0.08 0.06 0.08 0.06 0.05 0.07 0.13 0.06 0.06 0.06 0.04 0.08 0.05 0.06 0.05 0.05 0.03 0.05 0.02 0.09 0.01 0.00 0.00 0.00 0.00 0.00 0.00 0.00 0.00 0.00 0.00 0.00 0.00 0.00 0.00 0.00 0.00 0.00 0.00 0.00 0.00 0.00 0.00 0.00 0.00 0.00 0.00 0.00 0.00 0.00 0.00 0.00 0.00 0.00 0.00 0.00 0.00 0.00 0.00 0.00 0.00 0.00 0.00 0.04 0.09 0.16 0.17 0.32 0.34 0.49 0.36 0.74 1.37 1.69 1.59 2.35 1.30 1.21 1.44 1.52 1.66
0.08 0.08 0.06 0.06 0.11 0.07 0.09 0.10 0.10 0.09 0.07 0.06 0.05 0.05 0.07 0.06 0.06 0.04 0.05 0.06 0.05 0.05 0.03 0.09 0.06 0.05 0.09 0.00 0.00 0.00 0.00 0.00 0.00 0.00 0.00 0.00 0.00 0.00 0.00 0.00 0.00 0.00 0.00 0.00 0.00 0.00 0.00 0.00 0.00 0.00 0.00 0.00 0.00 0.00 0.00 0.00 0.00 0.00 0.00 0.00 0.00 0.00 0.00 0.00 0.00 0.00 0.00 0.00 0.00 0.00 0.02 0.20 0.09 0.33 0.32 0.23 0.27 0.58 0.46 0.77 1.01 1.73 2.01 1.71 1.37 1.41 1.41 2.01
0.06 0.09 0.07 0.08 0.11 0.07 0.04 0.09 0.07 0.06 0.06 0.05 0.06 0.05 0.07 0.13 0.13 0.10 0.13 0.14 0.05 0.09 0.06 0.08 0.04 0.02 0.01 0.01 0.00 0.00 0.00 0.00 0.00 0.00 0.00 0.00 0.00 0.00 0.00 0.00 0.00 0.00 0.00 0.00 0.00 0.00 0.00 0.00 0.00 0.00 0.00 0.00 0.00 0.00 0.00 0.00 0.00 0.00 0.00 0.00 0.00 0.00 0.00 0.00 0.00 0.00 0.00 0.00 0.00 0.00 0.04 0.03 0.25 0.24 0.22 0.22 0.32 0.19 0.29 0.84 1.04 1.87 1.58 1.82 1.48 0.92 0.73 0.54
0.08 0.06 0.09 0.08 0.09 0.11 0.07 0.07 0.06 0.13 0.07 0.04 0.03 0.03 0.05 0.05 0.06 0.21 0.06 0.15 0.06 0.04 0.06 0.05 0.02 0.04 0.10 0.00 0.00 0.00 0.00 0.00 0.00 0.00 0.00 0.00 0.00 0.00 0.00 0.00 0.00 0.00 0.00 0.00 0.00 0.00 0.00 0.00 0.00 0.00 0.00 0.00 0.00 0.00 0.00 0.00 0.00 0.00 0.00 0.00 0.00 0.00 0.00 0.00 0.00 0.00 0.00 0.00 0.00 0.00 0.00 0.02 0.05 0.12 0.12 0.23 0.18 0.22 0.75 1.50 1.64 1.73 1.20 0.95 1.03 0.48 0.39 0.44
0.07 0.07 0.09 0.08 0.06 0.08 0.04 0.04 0.05 0.06 0.09 0.07 0.04 0.03 0.04 0.05 0.05 0.07 0.09 0.11 0.16 0.08 0.08 0.05 0.02 0.04 0.00 0.00 0.00 0.00 0.00 0.00 0.00 0.00 0.00 0.00 0.00 0.00 0.00 0.00 0.00 0.00 0.00 0.00 0.00 0.00 0.00 0.00 0.00 0.00 0.00 0.00 0.00 0.00 0.00 0.00 0.00 0.00 0.00 0.00 0.00 0.00 0.00 0.00 0.00 0.00 0.00 0.00 0.00 0.00 0.02 0.01 0.05 0.08 0.19 0.31 0.72 1.37 0.64 1.30 0.34 0.23 0.23 0.75 0.73 0.70 0.59 0.59
0.07 0.08 0.09 0.07 0.07 0.05 0.06 0.05 0.03 0.04 0.11 0.12 0.05 0.05 0.02 0.05 0.11 0.07 0.05 0.16 0.18 0.32 0.15 0.17 0.11 0.03 0.02 0.00 0.00 0.00 0.00 0.00 0.00 0.00 0.00 0.00 0.00 0.00 0.00 0.00 0.00 0.00 0.00 0.00 0.00 0.00 0.00 0.00 0.00 0.00 0.00 0.00 0.00 0.00 0.00 0.00 0.00 0.00 0.01 0.00 0.00 0.00 0.00 0.00 0.00 0.00 0.00 0.00 0.00 0.03 0.06 0.06 0.06 0.14 0.52 1.50 1.28 1.13 1.45 1.27 0.36 0.58 0.51 0.51 0.42 0.86 1.23 0.95
0.10 0.10 0.09 0.08 0.09 0.05 0.04 0.02 0.03 0.07 0.49 0.06 0.07 0.07 0.12 0.19 0.17 0.19 0.07 0.16 0.18 0.05 0.02 0.06 0.00 0.00 0.00 0.00 0.00 0.00 0.00 0.00 0.00 0.00 0.00 0.00 0.00 0.00 0.00 0.00 0.00 0.00 0.00 0.00 0.00 0.00 0.00 0.00 0.00 0.00 0.00 0.00 0.00 0.00 0.00 0.00 0.00 0.00 0.00 0.00 0.00 0.00 0.00 0.00 0.00 0.00 0.00 0.00 0.00 0.00 0.03 0.05 0.07 0.14 0.60 1.49 2.47 1.14 0.94 0.23 0.15 0.32 0.26 0.39 0.63 0.71 0.69 0.68
0.08 0.10 0.08 0.11 0.09 0.08 0.03 0.03 0.02 0.06 0.16 0.21 0.12 0.24 0.17 0.09 0.22 0.13 0.12 0.09 0.06 0.02 0.01 0.05 0.03 0.01 0.00 0.00 0.00 0.00 0.00 0.00 0.00 0.00 0.00 0.00 0.00 0.00 0.00 0.00 0.00 0.00 0.00 0.00 0.00 0.00 0.00 0.00 0.00 0.00 0.00 0.00 0.00 0.00 0.00 0.00 0.00 0.00 0.00 0.00 0.00 0.00 0.00 0.00 0.00 0.00 0.00 0.00 0.01 0.01 0.01 0.06 0.05 0.12 0.51 0.44 2.42 1.46 1.27 0.76 0.37 0.62 1.16 0.67 0.44 0.49 0.38 0.66
0.09 0.09 0.13 0.10 0.10 0.08 0.06 0.03 0.03 0.06 0.21 0.18 0.19 0.11 0.07 0.16 0.11 0.12 0.02 0.16 0.05 0.02 0.03 0.01 0.01 0.01 0.00 0.00 0.00 0.00 0.00 0.00 0.00 0.00 0.00 0.00 0.00 0.00 0.00 0.00 0.00 0.00 0.00 0.00 0.00 0.00 0.00 0.00 0.00 0.00 0.00 0.00 0.00 0.00 0.00 0.00 0.00 0.00 0.00 0.00 0.00 0.00 0.00 0.00 0.00 0.00 0.00 0.00 0.02 0.02 0.03 0.07 0.11 0.13 0.85 0.42 0.39 1.74 1.41 0.44 0.73 1.35 0.93 1.86 1.76 1.50 1.35 1.02
0.22 0.08 0.08 0.12 0.12 0.12 0.16 0.14 0.09 0.18 0.23 0.15 0.15 0.09 0.10 0.10 0.09 0.15 0.08 0.19 0.10 0.04 0.05 0.00 0.01 0.00 0.00 0.00 0.00 0.00 0.00 0.00 0.00 0.00 0.00 0.00 0.00 0.00 0.00 0.00 0.00 0.00 0.00 0.00 0.00 0.00 0.00 0.00 0.00 0.00 0.00 0.00 0.00 0.00 0.00 0.00 0.00 0.00 0.00 0.00 0.00 0.00 0.01 0.03 0.00 0.00 0.00 0.00 0.01 0.01 0.03 0.12 0.13 0.28 0.28 0.31 0.35 0.37 1.18 0.71 0.70 1.06 1.02 0.63 1.25 1.07 0.82 0.99
0.16 0.24 0.27 0.31 0.21 0.18 0.19 0.29 0.18 0.19 0.12 0.06 0.09 0.16 0.16 0.26 0.13 0.13 0.21 0.31 0.09 0.06 0.00 0.00 0.01 0.00 0.00 0.00 0.00 0.00 0.00 0.00 0.00 0.00 0.00 0.00 0.00 0.00 0.00 0.00 0.00 0.00 0.00 0.00 0.00 0.00 0.00 0.00 0.00 0.00 0.00 0.00 0.00 0.00 0.00 0.00 0.00 0.00 0.00 0.00 0.00 0.01 0.00 0.00 0.04 0.00 0.00 0.00 0.00 0.02 0.05 0.18 0.19 0.28 0.34 0.35 0.36 0.28 0.85 0.71 0.57 0.41 0.78 0.80 1.11 0.85 0.79 0.62
0.12 0.29 0.24 0.13 0.27 0.17 0.34 0.35 0.07 0.08 0.08 0.15 0.11 0.20 0.43 0.12 0.25 0.24 0.24 0.21 0.03 0.03 0.00 0.00 0.00 0.00 0.00 0.00 0.00 0.00 0.00 0.00 0.00 0.00 0.00 0.00 0.00 0.00 0.00 0.00 0.00 0.00 0.00 0.00 0.00 0.00 0.00 0.00 0.00 0.00 0.00 0.00 0.00 0.00 0.00 0.00 0.00 0.00 0.00 0.00 0.00 0.00 0.01 0.00 0.00 0.00 0.00 0.02 0.02 0.02 0.06 0.27 0.23 0.49 0.21 0.27 0.30 0.35 0.47 0.49 0.85 1.00 0.59 0.66 0.73 0.81 0.72 0.68
0.24 0.18 0.22 0.19 0.33 0.58 0.67 0.15 0.20 0.06 0.11 0.29 0.13 0.15 0.26 0.41 0.21 0.34 0.20 0.39 0.12 0.04 0.04 0.01 0.00 0.00 0.00 0.00 0.00 0.00 0.00 0.00 0.00 0.00 0.00 0.00 0.00 0.00 0.00 0.00 0.00 0.00 0.00 0.00 0.00 0.00 0.01 0.00 0.00 0.00 0.00 0.00 0.00 0.00 0.00 0.00 0.00 0.00 0.01 0.00 0.00 0.00 0.00 0.00 0.01 0.00 0.01 0.02 0.06 0.00 0.04 0.17 0.19 0.31 0.32 0.35 0.16 0.25 0.50 0.44 0.46 1.21 0.61 0.31 0.39 0.50 0.87 0.54
0.16 0.19 0.18 0.29 0.39 0.72 0.19 0.31 0.26 0.18 0.13 0.20 0.22 0.38 0.16 0.33 0.70 0.25 0.29 0.21 0.16 0.12 0.00 0.02 0.00 0.01 0.00 0.00 0.00 0.00 0.01 0.01 0.00 0.00 0.00 0.00 0.00 0.00 0.00 0.00 0.00 0.00 0.00 0.00 0.00 0.00 0.00 0.00 0.00 0.00 0.00 0.00 0.00 0.00 0.00 0.00 0.00 0.01 0.01 0.00 0.00 0.00 0.00 0.00 0.01 0.00 0.03 0.00 0.01 0.00 0.03 0.24 0.26 0.17 0.16 0.37 0.37 0.32 0.50 0.37 0.32 0.15 0.92 0.52 0.54 1.01 0.59 0.45
0.21 0.52 0.22 0.29 0.49 0.15 0.16 0.22 0.19 0.21 0.38 0.37 0.12 0.34 0.38 0.28 0.30 0.53 0.13 0.31 0.09 0.01 0.04 0.05 0.00 0.01 0.00 0.00 0.00 0.00 0.00 0.00 0.00 0.00 0.00 0.00 0.00 0.00 0.00 0.00 0.00 0.00 0.00 0.00 0.01 0.00 0.00 0.00 0.00 0.00 0.00 0.00 0.00 0.00 0.00 0.00 0.00 0.00 0.00 0.00 0.00 0.00 0.00 0.00 0.01 0.01 0.02 0.04 0.07 0.01 0.03 0.14 0.20 0.26 0.26 0.29 0.55 0.42 0.59 0.36 0.24 0.23 0.28 0.56 1.16 1.04 0.63 0.42
0.36 0.24 0.33 0.38 0.23 0.61 0.13 0.46 0.38 0.34 0.51 0.41 0.27 0.35 0.24 1.04 0.41 0.43 0.37 0.19 0.21 0.02 0.00 0.17 0.00 0.00 0.00 0.00 0.00 0.00 0.00 0.00 0.00 0.00 0.00 0.00 0.00 0.00 0.00 0.00 0.00 0.00 0.00 0.00 0.01 0.01 0.00 0.00 0.00 0.00 0.00 0.00 0.00 0.00 0.00 0.00 0.00 0.00 0.00 0.00 0.00 0.00 0.00 0.00 0.02 0.00 0.09 0.02 0.07 0.04 0.08 0.05 0.32 0.18 0.38 0.35 0.20 0.26 0.24 0.20 0.26 0.27 0.26 0.36 0.52 0.79 0.56 0.38
0.27 0.39 0.23 0.33 0.18 0.25 0.43 0.28 0.50 0.77 0.42 0.57 0.38 0.17 0.25 0.63 0.82 0.31 0.47 0.06 0.08 0.16 0.01 0.03 0.03 0.01 0.00 0.00 0.00 0.00 0.00 0.00 0.00 0.00 0.00 0.00 0.00 0.00 0.00 0.00 0.00 0.00 0.00 0.00 0.00 0.00 0.01 0.00 0.00 0.00 0.00 0.00 0.00 0.00 0.00 0.00 0.00 0.00 0.00 0.00 0.00 0.00 0.01 0.01 0.01 0.02 0.11 0.05 0.02 0.01 0.05 0.00 0.27 0.25 0.19 0.23 0.17 0.12 0.14 0.18 0.26 0.28 0.29 0.32 0.55 0.47 0.38 0.63
0.14 0.22 0.43 0.31 0.37 0.35 0.22 0.31 0.82 0.67 0.53 0.20 0.24 0.44 0.66 0.52 0.71 0.18 0.12 0.12 0.02 0.26 0.01 0.00 0.00 0.00 0.02 0.00 0.00 0.00 0.00 0.00 0.00 0.00 0.00 0.00 0.00 0.00 0.00 0.00 0.00 0.00 0.00 0.00 0.00 0.00 0.00 0.00 0.00 0.00 0.00 0.00 0.00 0.00 0.00 0.00 0.00 0.00 0.00 0.01 0.00 0.03 0.03 0.03 0.03 0.02 0.09 0.00 0.02 0.03 0.03 0.05 0.17 0.48 0.44 0.15 0.19 0.11 0.11 0.12 0.20 0.23 0.17 0.21 0.32 0.41 0.44 0.49
0.14 0.11 0.39 0.22 0.40 0.28 0.26 0.70 0.62 0.23 0.45 0.09 0.20 0.29 0.50 0.56 0.29 0.41 0.15 0.16 0.48 0.65 0.19 0.14 0.01 0.01 0.01 0.01 0.00 0.00 0.00 0.00 0.00 0.00 0.00 0.00 0.00 0.00 0.00 0.00 0.00 0.00 0.01 0.00 0.04 0.00 0.00 0.00 0.00 0.00 0.00 0.00 0.00 0.00 0.00 0.00 0.00 0.00 0.00 0.01 0.17 0.18 0.01 0.15 0.04 0.07 0.00 0.01 0.04 0.02 0.02 0.10 0.04 0.17 0.37 0.10 0.10 0.06 0.06 0.09 0.16 0.15 0.13 0.13 0.23 0.17 0.24 0.18
0.05 0.04 0.09 0.36 0.23 0.45 0.23 0.26 0.49 0.69 0.41 0.19 0.62 0.92 0.58 0.65 0.34 0.12 0.20 0.48 1.24 0.26 0.24 0.07 0.12 0.02 0.03 0.00 0.02 0.00 0.00 0.02 0.02 0.00 0.00 0.00 0.00 0.00 0.00 0.00 0.00 0.00 0.04 0.03 0.03 0.00 0.02 0.00 0.00 0.00 0.00 0.00 0.00 0.00 0.01 0.01 0.00 0.00 0.01 0.09 0.05 0.12 0.05 0.02 0.07 0.02 0.07 0.02 0.03 0.03 0.06 0.10 0.44 0.41 0.27 0.18 0.14 0.11 0.07 0.11 0.08 0.11 0.15 0.17 0.20 0.16 0.22 0.19
0.01 0.01 0.15 0.08 0.27 0.21 0.17 0.27 0.28 0.28 0.31 0.24 0.37 0.43 1.00 0.35 0.16 0.22 0.34 0.64 1.19 0.27 0.07 0.14 0.05 0.06 0.01 0.05 0.13 0.00 0.01 0.00 0.00 0.00 0.00 0.02 0.00 0.01 0.00 0.00 0.00 0.00 0.00 0.07 0.02 0.01 0.02 0.14 0.00 0.00 0.01 0.00 0.00 0.00 0.00 0.04 0.00 0.00 0.00 0.01 0.07 0.10 0.05 0.02 0.05 0.09 0.02 0.12 0.08 0.04 0.02 0.12 0.16 1.93 0.15 0.12 0.11 0.02 0.04 0.11 0.07 0.10 0.17 0.14 0.20 0.11 0.18 0.47
0.01 0.02 0.05 0.08 0.11 0.07 0.08 0.12 0.22 0.17 0.36 0.44 0.33 0.53 0.42 0.17 0.22 0.33 0.71 0.71 0.68 0.36 0.24 0.06 0.15 0.03 0.03 0.01 0.01 0.01 0.00 0.14 0.00 0.01 0.00 0.00 0.03 0.00 0.01 0.00 0.00 0.00 0.01 0.00 0.05 0.00 0.01 0.08 0.01 0.00 0.00 0.00 0.00 0.00 0.00 0.00 0.02 0.00 0.01 0.01 0.04 0.04 0.01 0.07 0.22 0.05 0.14 0.08 0.03 0.09 0.09 0.34 0.81 1.56 0.47 0.16 0.06 0.06 0.06 0.07 0.07 0.17 0.15 0.13 0.21 0.29 0.27 0.43
0.01 0.04 0.03 0.08 0.06 0.02 0.02 0.41 0.16 0.20 0.29 0.40 0.51 0.43 0.30 0.24 0.52 0.92 0.89 0.50 0.47 0.33 0.19 0.06 0.05 0.07 0.01 0.03 0.00 0.05 0.04 0.08 0.13 0.02 0.06 0.00 0.00 0.03 0.00 0.00 0.00 0.00 0.03 0.00 0.09 0.05 0.00 0.10 0.01 0.01 0.00 0.00 0.00 0.00 0.00 0.00 0.23 0.07 0.00 0.05 0.01 0.01 0.02 0.01 0.00 0.01 0.00 0.00 0.07 0.02 0.14 0.52 0.41 1.34 0.43 0.48 0.18 0.12 0.08 0.11 0.10 0.10 0.10 0.21 0.30 0.25 0.37 0.51
0.09 0.06 0.11 0.04 0.02 0.01 0.05 0.22 0.12 0.17 0.17 0.27 0.46 0.38 0.18 0.25 0.45 0.55 0.70 0.55 0.53 0.31 0.12 0.30 0.09 0.03 0.04 0.03 0.06 0.00 0.11 0.02 0.12 0.02 0.21 0.01 0.06 0.00 0.00 0.00 0.00 0.00 0.00 0.00 0.06 0.00 0.11 0.22 0.01 0.01 0.00 0.00 0.00 0.00 0.00 0.00 0.00 0.00 0.03 0.04 0.00 0.00 0.03 0.03 0.09 0.08 0.01 0.01 0.10 0.03 0.08 0.48 0.22 0.75 0.90 0.51 0.24 0.28 0.20 0.15 0.08 0.17 0.23 0.32 0.51 0.79 0.92 1.04
0.10 0.15 0.11 0.05 0.02 0.03 0.06 0.17 0.12 0.11 0.30 0.44 0.36 0.33 0.35 0.52 0.54 0.54 0.51 0.46 0.30 0.28 0.42 0.45 0.19 0.01 0.04 0.06 0.06 0.02 0.06 0.03 0.26 0.03 0.18 0.05 0.28 0.00 0.02 0.01 0.00 0.00 0.00 0.00 0.02 0.03 0.00 0.13 0.05 0.00 0.00 0.01 0.00 0.00 0.00 0.00 0.00 0.00 0.06 0.02 0.01 0.08 0.05 0.03 0.00 0.03 0.03 0.04 0.10 0.11 0.25 0.16 0.16 0.81 0.66 0.58 0.24 0.45 0.53 0.40 0.33 0.26 0.41 0.80 0.59 0.81 1.14 1.60
0.28 0.36 0.40 0.07 0.04 0.04 0.05 0.13 0.15 0.14 0.39 0.33 0.30 0.36 0.45 0.49 0.43 0.40 0.43 0.32 0.19 0.52 0.33 0.29 0.13 0.00 0.04 0.02 0.05 0.04 0.05 0.15 0.08 0.18 0.10 0.27 0.22 0.09 0.11 0.01 0.03 0.00 0.00 0.00 0.01 0.03 0.00 0.05 0.07 0.00 0.00 0.02 0.00 0.00 0.01 0.01 0.00 0.00 0.00 0.00 0.00 0.00 0.13 0.08 0.01 0.20 0.01 0.17 0.03 0.21 0.16 0.26 0.54 0.60 0.19 0.22 0.20 0.26 0.24 0.28 0.41 0.73 0.65 0.94 1.07 1.11 1.20 1.15
0.49 0.47 0.57 0.07 0.01 0.01 0.09 0.11 0.42 0.41 0.51 0.37 0.33 0.40 0.47 0.46 0.34 0.47 0.20 0.16 0.32 0.22 0.74 0.46 0.05 0.08 0.00 0.03 0.00 0.12 0.06 0.09 0.07 0.24 0.07 0.45 0.10 0.08 0.09 0.01 0.08 0.00 0.00 0.00 0.01 0.00 0.05 0.01 0.14 0.08 0.00 0.00 0.04 0.00 0.02 0.00 0.04 0.00 0.00 0.00 0.00 0.01 0.04 0.00 0.10 0.03 0.07 0.08 0.16 0.16 0.19 0.60 0.60 0.11 0.22 0.23 0.17 0.33 0.30 0.26 0.29 0.54 0.87 0.55 0.86 1.18 1.25 1.14
0.49 0.97 0.79 0.01 0.03 0.03 0.20 0.33 0.43 0.44 0.39 0.31 0.38 0.40 0.31 0.43 0.38 0.34 0.15 0.11 0.11 0.18 0.27 0.29 0.20 0.20 0.03 0.03 0.01 0.02 0.04 0.02 0.08 0.15 0.05 0.30 0.17 0.35 0.00 0.02 0.01 0.20 0.00 0.01 0.01 0.01 0.01 0.00 0.04 0.12 0.04 0.02 0.01 0.00 0.00 0.00 0.02 0.01 0.00 0.03 0.01 0.05 0.11 0.09 0.05 0.00 0.08 0.06 0.12 0.12 0.22 0.42 0.63 0.18 0.26 0.49 0.63 0.37 0.54 0.37 0.42 0.77 0.27 0.53 0.62 0.89 0.56 0.71
0.65 0.93 0.81 0.05 0.06 0.08 0.24 0.42 0.24 0.29 0.35 0.36 0.51 0.54 0.55 0.43 0.44 0.30 0.15 0.11 0.31 0.11 0.05 0.09 0.03 0.04 0.06 0.04 0.03 0.00 0.01 0.02 0.14 0.06 0.18 0.35 0.29 0.09 0.07 0.00 0.01 0.00 0.07 0.06 0.15 0.11 0.03 0.05 0.10 0.06 0.17 0.37 0.09 0.04 0.01 0.01 0.01 0.01 0.00 0.02 0.01 0.02 0.01 0.12 0.08 0.19 0.05 0.11 0.04 0.21 0.15 0.53 0.54 0.41 0.42 0.20 0.42 0.36 0.53 0.57 0.69 0.77 0.75 0.98 1.23 1.38 0.87 0.60
0.96 1.72 0.49 0.12 0.04 0.10 0.30 0.44 0.32 0.35 0.52 0.41 0.43 0.47 0.46 0.52 0.34 0.16 0.13 0.22 0.22 0.07 0.14 0.10 0.06 0.13 0.01 0.01 0.02 0.03 0.01 0.07 0.05 0.20 0.10 0.14 0.30 0.10 0.05 0.01 0.00 0.02 0.01 0.07 0.04 0.06 0.00 0.00 0.03 0.06 0.06 0.08 0.01 0.00 0.01 0.00 0.00 0.00 0.00 0.00 0.01 0.07 0.05 0.05 0.12 0.24 0.14 0.16 0.11 0.13 0.06 0.81 0.38 0.95 0.60 0.49 0.88 0.62 0.41 0.57 0.76 0.54 0.68 0.79 0.95 0.63 0.95 0.39
1.49 1.79 0.59 0.34 0.03 0.12 0.45 0.49 0.46 0.37 0.43 0.36 0.48 0.49 0.52 0.40 0.22 0.22 0.41 0.28 0.15 0.14 0.19 0.11 0.03 0.02 0.08 0.00 0.00 0.02 0.02 0.04 0.01 0.03 0.16 0.07 0.24 0.03 0.07 0.06 0.05 0.20 0.05 0.40 0.12 0.10 0.15 0.03 0.07 0.17 0.17 0.25 0.22 0.09 0.04 0.02 0.01 0.01 0.06 0.03 0.01 0.07 0.04 0.09 0.04 0.07 0.03 0.06 0.19 0.11 0.25 0.74 0.92 0.36 0.68 0.42 0.20 0.31 1.59 1.26 1.31 0.68 0.33 0.88 0.88 1.13 1.14 0.70
1.66 0.83 0.77 0.54 0.13 0.51 0.73 0.54 0.79 0.57 0.55 0.57 0.72 0.71 0.70 0.38 0.33 0.18 0.17 0.23 0.19 0.09 0.12 0.13 0.04 0.12 0.01 0.00 0.00 0.00 0.01 0.02 0.13 0.03 0.05 0.07 0.36 0.01 0.04 0.01 0.08 0.28 0.08 0.08 0.00 0.06 0.12 0.35 0.07 0.14 0.37 0.44 0.39 0.47 0.53 0.23 0.12 0.04 0.01 0.03 0.03 0.02 0.13 0.14 0.05 0.05 0.04 0.02 0.04 0.13 0.19 0.43 0.42 0.30 0.39 0.38 0.39 0.44 0.47 0.50 0.51 0.75 0.99 0.33 0.50 0.56 0.40 0.75
1.54 0.67 0.49 1.20 0.81 0.94 0.38 0.57 0.65 0.85 0.64 0.67 0.51 0.40 0.35 0.51 0.33 0.39 0.12 0.11 0.33 0.07 0.13 0.08 0.04 0.04 0.02 0.01 0.01 0.01 0.02 0.01 0.05 0.11 0.06 0.18 0.14 0.02 0.07 0.05 0.01 0.11 0.03 0.00 0.04 0.03 0.31 0.14 0.34 0.20 0.28 0.60 0.51 0.31 0.15 0.01 0.11 0.12 0.17 0.03 0.12 0.01 0.04 0.04 0.11 0.14 0.10 0.21 0.15 0.26 0.19 0.47 0.52 0.38 0.27 0.22 0.41 0.36 0.79 0.38 0.48 0.54 0.41 0.78 0.64 0.92 0.59 0.72
1.23 0.57 0.27 0.59 0.43 0.71 0.87 0.46 0.52 0.85 0.84 0.70 0.60 0.45 0.63 0.40 0.34 0.35 0.06 0.39 0.11 0.35 0.13 0.16 0.03 0.05 0.08 0.01 0.06 0.04 0.01 0.07 0.02 0.04 0.07 0.13 0.12 0.11 0.02 0.07 0.06 0.01 0.01 0.05 0.07 0.08 0.23 0.20 0.18 0.23 0.17 0.26 0.15 0.16 0.22 0.04 0.16 0.14 0.20 0.24 0.14 0.09 0.10 0.18 0.03 0.11 0.23 0.09 0.27 0.64 0.29 0.21 0.33 0.25 0.21 0.23 0.23 0.20 0.37 0.26 0.16 0.21 0.46 0.40 0.55 0.63 0.61 0.28
1.07 0.61 0.34 0.26 0.63 0.57 0.69 0.73 0.63 0.82 0.77 0.65 0.60 0.51 0.56 0.45 0.40 0.33 0.35 0.28 0.37 0.11 0.18 0.10 0.06 0.02 0.01 0.03 0.04 0.03 0.08 0.07 0.04 0.05 0.11 0.17 0.07 0.13 0.10 0.03 0.15 0.09 0.07 0.10 0.06 0.10 0.34 0.32 0.40 0.23 0.41 0.22 0.36 0.28 0.10 0.09 0.08 0.10 0.13 0.14 0.23 0.19 0.16 0.19 0.12 0.09 0.26 0.05 0.43 0.42 0.27 0.16 0.20 0.18 0.18 0.19 0.14 0.20 0.25 0.28 0.23 0.25 0.17 0.09 0.12 0.19 0.32 0.22
1.71 0.25 0.41 0.12 0.49 0.60 0.53 0.75 0.76 0.87 1.02 0.72 0.90 0.63 0.60 0.34 0.41 0.76 0.21 0.89 0.15 0.32 0.16 0.08 0.06 0.03 0.02 0.03 0.05 0.08 0.11 0.13 0.03 0.11 0.23 0.38 0.25 0.30 0.31 0.26 0.05 0.08 0.05 0.05 0.13 0.07 0.10 0.31 0.46 0.29 0.35 0.34 0.24 0.16 0.19 0.12 0.10 0.17 0.10 0.11 0.19 0.12 0.12 0.12 0.10 0.06 0.13 0.20 0.15 0.27 0.05 0.11 0.20 0.24 0.13 0.16 0.13 0.20 0.28 0.23 0.22 0.12 0.10 0.28 0.10 0.11 0.09 0.25
0.94 0.90 0.43 0.12 0.23 0.13 0.30 0.49 0.83 0.94 0.99 0.74 0.64 0.44 0.43 0.35 0.41 0.27 0.12 0.27 0.34 0.30 0.40 0.15 0.14 0.14 0.07 0.04 0.08 0.27 0.29 0.19 0.22 0.06 0.32 0.08 0.19 0.41 0.59 0.50 0.60 0.07 0.02 0.10 0.06 0.30 0.13 0.23 0.07 0.39 0.56 0.37 0.52 0.30 0.22 0.27 0.22 0.26 0.07 0.04 0.06 0.10 0.30 0.12 0.35 0.39 0.12 0.16 0.40 0.42 0.12 0.17 0.33 0.17 0.15 0.14 0.12 0.16 0.65 0.50 0.41 0.22 0.09 0.24 0.18 0.05 0.04 0.07
1.25 0.85 0.64 0.71 0.42 0.30 0.45 0.37 0.41 0.55 0.78 0.74 0.79 0.56 0.54 0.30 0.28 0.14 0.17 0.31 0.11 0.15 0.19 0.25 0.06 0.16 0.19 0.13 0.17 0.24 0.11 0.24 0.14 0.22 0.25 0.11 0.16 0.12 0.15 0.30 0.03 0.62 0.53 0.63 0.54 0.85 0.13 0.43 0.19 0.31 0.44 0.50 0.26 0.61 0.63 0.74 0.60 0.36 0.22 0.32 0.19 0.28 0.35 0.22 0.23 0.17 0.26 0.42 0.48 0.41 0.25 0.22 0.55 0.29 0.38 0.15 0.11 0.10 0.13 0.20 0.21 0.07 0.07 0.10 0.06 0.13 0.07 0.33
1.12 0.54 0.53 0.80 0.59 0.35 0.53 0.28 0.59 0.41 0.51 0.47 0.61 0.65 0.67 0.49 0.29 0.39 0.31 0.17 0.30 0.28 0.25 0.48 0.12 0.25 0.19 0.31 0.19 0.18 0.07 0.20 0.15 0.14 0.19 0.07 0.06 0.11 0.07 0.09 0.03 0.15 0.15 0.16 0.52 0.45 0.41 0.34 0.31 0.62 0.37 0.63 0.52 0.60 0.45 0.42 0.40 0.45 0.37 0.36 0.25 0.29 0.14 0.31 0.18 0.15 0.24 0.42 0.42 0.55 0.40 0.29 0.26 0.16 0.10 0.23 0.11 0.12 0.21 0.08 0.11 0.10 0.08 0.07 0.07 0.07 0.09 0.08